Weather History for Glens Falls, NY

Change the Weather History Date:

Saturday, February 23, 2013

  Actual Average Record
Temperature  
Mean Temperature 32 °F 24 °F  
Max Temperature 34 °F 35 °F 58 °F (1981)
Min Temperature 29 °F 12 °F -18 °F (1972)
Degree Days  
Heating Degree Days 33 42  
Month to date heating degree days 999 1021  
Since 1 July heating degree days 4944 5417  
Cooling Degree Days 0 0  
Month to date cooling degree days 0 0  
Year to date cooling degree days 0 0  
Moisture  
Dew Point 29 °F    
Average Humidity 78    
Maximum Humidity 92    
Minimum Humidity 63    
Precipitation  
Precipitation 0.21 in 0.08 in 0.69 in (1950)
Month to date precipitation 0.63 1.68  
Year to date precipitation 1.91 4.54  
Sea Level Pressure  
Sea Level Pressure 30.01 in    
Wind  
Wind Speed 1 mph (South)    
Max Wind Speed 7 mph    
Max Gust Speed 8 mph    
Visibility 4 miles    
Events Snow    
T = Trace of Precipitation, MM = Missing Value Source: NWS Daily Summary

Daily Weather History Graph

Daily Weather History Graph

Search for Another Location

Airport:

Trip Planner

Search our weather history database for the weather conditions in past years. The results will help you decide how hot, cold, wet, or windy it might be!

Date:

Astronomy

Feb. 23, 2013 Rise Set
Actual Time 6:40 AM EST 5:36 PM EST
Civil Twilight 6:11 AM EST 6:04 PM EST
Nautical Twilight 5:38 AM EST 6:38 PM EST
Astronomical Twilight 5:05 AM EST 7:11 PM EST
Moon 3:42 PM EST 5:03 AM EST
Length of Visible Light 11h 53m
Length of Day
10h 55m
Waxing Gibbous, 95% of the Moon is Illuminated
Feb 23
Waxing Gibbous
Feb 25
Full
Mar 4
Last Quarter
Mar 11
New
Mar 19
First Quarter

Hourly Weather History & Observations

Time (EST) Temp. Windchill Dew Point Humidity Pressure Visibility Wind Dir Wind Speed Gust Speed Precip Events Conditions
12:53 AM 30.9 °F 27.5 °F 21.9 °F 69% 30.25 in 10.0 mi SSE 3.5 mph - N/A   Overcast
1:53 AM 30.0 °F 25.2 °F 21.9 °F 72% 30.23 in 10.0 mi SSE 4.6 mph - N/A   Overcast
2:53 AM 30.9 °F - 21.0 °F 67% 30.22 in 10.0 mi Calm Calm - N/A   Overcast
3:53 AM 32.0 °F 28.7 °F 21.9 °F 66% 30.19 in 10.0 mi SSW 3.5 mph - N/A   Overcast
4:53 AM 30.9 °F 26.2 °F 23.0 °F 72% 30.18 in 10.0 mi SSW 4.6 mph - N/A   Overcast
5:53 AM 32.0 °F 27.5 °F 23.0 °F 69% 30.17 in 10.0 mi SSW 4.6 mph - N/A   Overcast
6:53 AM 32.0 °F - 24.1 °F 73% 30.16 in 10.0 mi Calm Calm - N/A   Overcast
7:53 AM 33.1 °F - 24.1 °F 70% 30.15 in 10.0 mi Calm Calm - N/A   Overcast
8:53 AM 33.1 °F 30.0 °F 25.0 °F 72% 30.14 in 10.0 mi SSW 3.5 mph - N/A   Overcast
9:53 AM 34.0 °F 29.8 °F 26.1 °F 73% 30.12 in 10.0 mi South 4.6 mph - N/A   Overcast
10:53 AM 33.1 °F - 27.0 °F 78% 30.09 in 7.0 mi Calm Calm - 0.00 in   Overcast
11:53 AM 34.0 °F - 27.0 °F 75% 30.07 in 8.0 mi Calm Calm - N/A   Overcast
12:53 PM 33.1 °F - 28.9 °F 85% 30.06 in 2.0 mi Calm Calm - 0.00 in Snow Light Snow
1:19 PM 33.8 °F - 28.4 °F 81% 30.03 in 8.0 mi Calm Calm - 0.01 in   Overcast
1:37 PM 33.8 °F - 30.2 °F 87% 30.02 in 1.8 mi Calm Calm - 0.03 in Snow Light Snow
1:53 PM 32.0 °F - 30.0 °F 92% 30.04 in 1.0 mi Calm Calm - 0.04 in Snow Light Snow
2:11 PM 32.0 °F - 30.2 °F 93% 30.01 in 0.8 mi Calm Calm - 0.01 in Snow Light Snow
2:17 PM 32.0 °F - 30.2 °F 93% 30.01 in 2.0 mi Calm Calm - 0.01 in Snow Light Snow
2:38 PM 32.0 °F - 30.2 °F 93% 30.01 in 1.5 mi Calm Calm - 0.02 in   Overcast
2:53 PM 32.0 °F - 30.9 °F 96% 30.03 in 1.2 mi Calm Calm - 0.02 in Snow Light Snow
3:07 PM 32.0 °F - 30.2 °F 93% 30.00 in 0.8 mi Calm Calm - 0.01 in Snow Light Snow
3:18 PM 32.0 °F - 30.2 °F 93% 29.99 in 1.0 mi Calm Calm - 0.02 in Snow Light Snow
3:39 PM 32.0 °F - 30.2 °F 93% 29.99 in 1.0 mi Calm Calm - 0.02 in Snow Light Snow
3:48 PM 32.0 °F - 30.2 °F 93% 29.99 in 0.8 mi Calm Calm - 0.04 in Snow Light Snow
3:53 PM 32.0 °F - 30.9 °F 96% 30.01 in 1.2 mi Calm Calm - 0.04 in Snow Light Snow
4:09 PM 32.0 °F - 30.2 °F 93% 29.98 in 1.5 mi Calm Calm - 0.00 in   Overcast
4:18 PM 32.0 °F - 30.2 °F 93% 29.98 in 1.5 mi Calm Calm - 0.00 in Snow Light Snow
4:53 PM 32.0 °F - 30.0 °F 92% 30.00 in 1.0 mi Calm Calm - 0.01 in Snow Light Snow
5:02 PM 32.0 °F 28.7 °F 30.2 °F 93% 29.97 in 0.8 mi NE 3.5 mph - 0.00 in Snow Light Snow
5:11 PM 32.0 °F - 30.2 °F 93% 29.97 in 1.0 mi Calm Calm - 0.01 in Snow Light Snow
5:53 PM 32.0 °F - 30.9 °F 96% 29.99 in 0.8 mi Calm Calm - 0.04 in Snow Light Snow
6:04 PM 32.0 °F - 30.2 °F 93% 29.96 in 1.0 mi Calm Calm - 0.00 in Snow Light Snow
6:53 PM 32.0 °F - 30.9 °F 96% 29.97 in 1.5 mi Calm Calm - 0.01 in Snow Light Snow
7:03 PM 32.0 °F - 30.2 °F 93% 29.94 in 2.5 mi Calm Calm - 0.00 in   Overcast
7:20 PM 32.0 °F - 30.2 °F 93% 29.94 in 4.0 mi Calm Calm - 0.00 in   Overcast
7:45 PM 32.0 °F - 30.2 °F 93% 29.94 in 4.0 mi Calm Calm - 0.00 in   Overcast
7:53 PM 32.0 °F - 30.9 °F 96% 29.96 in 3.0 mi Calm Calm - 0.00 in   Overcast
8:30 PM 32.0 °F - 30.2 °F 93% 29.93 in 2.5 mi Calm Calm - 0.00 in   Overcast
8:42 PM 32.0 °F - 30.2 °F 93% 29.93 in 3.0 mi Calm Calm - 0.01 in   Overcast
8:53 PM 32.0 °F - 30.9 °F 96% 29.96 in 2.5 mi Calm Calm - 0.01 in   Overcast
9:05 PM 32.0 °F - 30.2 °F 93% 29.93 in 1.2 mi Calm Calm - 0.02 in Snow Light Snow
9:32 PM 32.0 °F - 30.2 °F 93% 29.92 in 2.5 mi Calm Calm - 0.02 in   Overcast
9:43 PM 32.0 °F - 30.2 °F 93% 29.91 in 3.0 mi Calm Calm - 0.03 in   Overcast
9:50 PM 32.0 °F - 30.2 °F 93% 29.91 in 2.5 mi Calm Calm - 0.03 in   Overcast
9:53 PM 32.0 °F - 30.9 °F 96% 29.94 in 3.0 mi Calm Calm - 0.03 in   Overcast
10:05 PM 32.0 °F - 30.2 °F 93% 29.91 in 4.0 mi Calm Calm - 0.00 in   Overcast
10:28 PM 32.0 °F - 30.2 °F 93% 29.90 in 2.5 mi Calm Calm - 0.00 in Snow Light Snow
10:38 PM 32.0 °F - 30.2 °F 93% 29.90 in 2.5 mi Calm Calm - 0.00 in Snow Light Snow
10:46 PM 32.0 °F - 30.2 °F 93% 29.89 in 1.5 mi Calm Calm - 0.00 in Snow Light Snow
10:53 PM 32.0 °F - 30.9 °F 96% 29.92 in 1.8 mi Calm Calm - 0.00 in Snow Light Snow
11:01 PM 32.0 °F - 30.2 °F 93% 29.89 in 2.5 mi Calm Calm - 0.00 in   Overcast
11:36 PM 32.0 °F - 30.2 °F 93% 29.89 in 1.5 mi Calm Calm - 0.01 in Snow Light Snow
11:53 PM 32.0 °F - 30.9 °F 96% 29.91 in 2.0 mi Calm Calm - 0.01 in   Overcast